Tracking 22879 objects as of 22-Apr-2021
HD Live streaming from Space Station
objects crossing your sky now

SL-8 DEB

Track SL-8 DEB now!
10-day predictions


NORAD ID: 21252
Int'l Code: 1991-009BK
Perigee: 1,480.4 km
Apogee: 1,678.0 km
Inclination: 74.1 °
Period: 117.6 minutes
Semi major axis: 7950 km
RCS: 0.066 m2 (small)
Launch date: February 12, 1991
Source: Commonwealth of Independent States (former USSR) (CIS)
Launch site: PLESETSK MISSILE AND SPACE COMPLEX (PKMTR)

Note: This is SATELLITE DEBRIS
aabbcc
Your satellite tracking list
Your tracking list is empty




NASA's NSSDC Master Catalog

Two Line Element Set (TLE):
1 21252U 91009BK  21111.66754580  .00000016  00000-0  27139-3 0  9990
2 21252  74.1066 332.9798 0124289 227.5304 191.3796 12.24720499346502
Source of the keplerian elements: AFSPC